De Soto, IL

12:13 PM CST on December 03, 2016 (GMT -0600)
Southern Illinois

Weather History for KMDH - March, 2013

Change the Weather History Date:

Tuesday, March 26, 2013

  Actual Average Record
Temperature  
Mean Temperature 38 °F -  
Max Temperature 44 °F 55 °F 88 °F (1910)
Min Temperature 32 °F 35 °F 9 °F (1955)
Degree Days  
Heating Degree Days 28    
Moisture  
Dew Point 25 °F    
Average Humidity 65    
Maximum Humidity 75    
Minimum Humidity 47    
Precipitation  
Precipitation 0.00 in - - ()
Sea Level Pressure  
Sea Level Pressure 30.30 in    
Wind  
Wind Speed 8 mph (NW)    
Max Wind Speed 14 mph    
Max Gust Speed 21 mph    
Visibility 10 miles    
Events      
Averages and records for this station are not official NWS values.
T = Trace of Precipitation, MM = Missing Value Source: NWS Daily Summary

Daily Weather History Graph

Daily Weather History Graph

Search for Another Location

Airport or City:

Trip Planner

Search our weather history database for the weather conditions in past years. The results will help you decide how hot, cold, wet, or windy it might be!

Date:

Astronomy

Mar. 26, 2013 Rise Set
Actual Time 6:51 AM CDT 7:14 PM CDT
Civil Twilight 6:24 AM CDT 7:40 PM CDT
Nautical Twilight 5:53 AM CDT 8:11 PM CDT
Astronomical Twilight 5:22 AM CDT 8:43 PM CDT
Moon 6:51 PM CDT (3/26) 6:07 AM CDT (3/26)
Length of Visible Light 13h 16m
Length of Day
12h 23m
Waxing Gibbous, 99% of the Moon is Illuminated
Mar 26
Waxing Gibbous
Mar 27
Full
Apr 2
Last Quarter
Apr 10
New
Apr 18
First Quarter

Hourly Weather History & Observations

Time (CDT) Temp. Windchill Dew Point Humidity Pressure Visibility Wind Dir Wind Speed Gust Speed Precip Events Conditions
12:52 AM 33.1 °F 26.9 °F 25.0 °F 72% 30.20 in 10.0 mi NW 6.9 mph - N/A   Overcast
1:52 AM 33.1 °F 26.1 °F 25.0 °F 72% 30.21 in 10.0 mi WNW 8.1 mph - N/A   Overcast
2:52 AM 32.0 °F 24.8 °F 25.0 °F 75% 30.20 in 10.0 mi WNW 8.1 mph - N/A   Clear
3:52 AM 32.0 °F 26.4 °F 25.0 °F 75% 30.20 in 10.0 mi WNW 5.8 mph - N/A   Clear
4:52 AM 32.0 °F 26.4 °F 25.0 °F 75% 30.21 in 10.0 mi WNW 5.8 mph - N/A   Mostly Cloudy
5:52 AM 32.0 °F 25.6 °F 25.0 °F 75% 30.23 in 10.0 mi NW 6.9 mph - N/A   Overcast
6:52 AM 32.0 °F 24.2 °F 25.0 °F 75% 30.25 in 10.0 mi NW 9.2 mph - N/A   Overcast
7:52 AM 33.1 °F 25.5 °F 26.1 °F 75% 30.27 in 10.0 mi NW 9.2 mph - N/A   Overcast
8:52 AM 34.0 °F 26.6 °F 26.1 °F 73% 30.30 in 10.0 mi NW 9.2 mph - N/A   Overcast
9:52 AM 37.0 °F 31.0 °F 28.0 °F 70% 30.31 in 10.0 mi NW 8.1 mph 17.3 mph N/A   Overcast
10:52 AM 39.9 °F 32.1 °F 28.0 °F 63% 30.33 in 10.0 mi NNW 13.8 mph - N/A   Overcast
11:52 AM 42.1 °F 34.9 °F 28.0 °F 58% 30.33 in 10.0 mi NW 13.8 mph 19.6 mph N/A   Overcast
12:52 PM 41.0 °F 34.3 °F 25.0 °F 53% 30.33 in 10.0 mi NW 11.5 mph 18.4 mph N/A   Overcast
1:52 PM 42.1 °F 35.2 °F 25.0 °F 51% 30.32 in 10.0 mi WNW 12.7 mph - N/A   Overcast
3:52 PM 43.0 °F 37.2 °F 24.1 °F 47% 30.32 in 10.0 mi WNW 10.4 mph - N/A   Mostly Cloudy
4:52 PM 43.0 °F 36.4 °F 24.1 °F 47% 30.32 in 10.0 mi NW 12.7 mph 20.7 mph N/A   Partly Cloudy
5:52 PM 42.1 °F 36.6 °F 24.1 °F 49% 30.33 in 10.0 mi NW 9.2 mph 18.4 mph N/A   Overcast
6:52 PM 41.0 °F 35.2 °F 24.1 °F 51% 30.34 in 10.0 mi NW 9.2 mph - N/A   Mostly Cloudy
7:52 PM 37.0 °F 33.3 °F 24.1 °F 59% 30.35 in 10.0 mi NNW 4.6 mph - N/A   Clear
8:52 PM 36.0 °F - 24.1 °F 62% 30.36 in 10.0 mi Calm Calm - N/A   Clear
9:52 PM 35.1 °F 32.2 °F 26.1 °F 70% 30.37 in 10.0 mi North 3.5 mph - N/A   Clear
10:52 PM 34.0 °F - 24.1 °F 67% 30.37 in 10.0 mi Calm Calm - N/A   Clear
11:52 PM 33.1 °F - 25.0 °F 72% 30.37 in 10.0 mi Calm Calm - N/A   Clear